Lid_Strength_Index
-0 -0 -0 -0 -0 -1 -1 -1 -1 -1 -1 -1 -2 -2 -2 -1 -1 2 5 4 5 10 9 7 7 9 9 10 13 10 11 11 13 17 17 15 15 13 13 13 13 17 18 18 16 22 20 8 8 12 9 8 8 7
0 0 -0 -0 -0 -0 -1 -1 -1 -1 -1 -1 -1 -1 -1 -1 -2 -0 3 2 2 6 9 6 6 5 6 6 9 9 10 10 10 14 15 14 12 13 13 16 11 17 14 15 14 14 9 7 8 6 6 7 7 6
-0 -0 -0 -0 -0 -1 -1 -1 -1 -1 -1 -1 -1 -1 -1 -1 -1 -1 3 2 3 6 6 6 7 4 3 3 3 10 9 7 8 7 11 11 14 12 16 14 13 11 9 12 12 9 8 7 6 6 6 6 6 5
-0 -0 -1 -1 -1 -1 -1 -1 -1 -1 -1 -1 -1 -1 -1 -1 -1 -1 3 3 3 5 10 10 4 5 3 2 3 3 5 5 6 6 8 10 12 10 12 11 12 11 9 10 10 8 8 7 7 7 6 6 6 5
-1 -1 -1 -1 -1 -1 -1 -1 -1 -1 -1 -0 -1 -1 -1 -1 -1 1 3 2 1 4 11 10 6 4 3 3 4 4 5 6 7 8 9 10 9 9 10 10 12 9 10 11 12 8 9 9 8 7 8 7 7 7
-1 -1 -1 -0 -1 -1 -1 -1 -1 -1 -1 -0 -1 -1 -1 -1 1 4 8 5 2 1 6 12 6 6 5 4 5 5 5 6 6 7 9 8 6 8 12 12 9 8 7 7 9 7 7 7 7 7 7 7 6 6
-0 -0 -0 -0 -1 -1 -1 -1 -1 -1 -0 -1 -1 -1 -1 -0 4 7 9 5 1 2 6 10 10 6 5 4 5 6 5 6 6 7 9 8 8 8 10 13 8 8 7 7 6 7 9 8 8 7 8 6 5 5
-0 -0 -1 -1 -1 -1 -1 -1 -1 -0 -0 -1 -1 -1 -1 -1 1 5 4 -1 -0 5 5 11 11 11 6 10 11 7 8 6 6 7 8 9 8 8 12 9 8 7 7 7 7 7 7 6 6 7 7 7 8 7
-0 -0 -0 -0 -0 -1 -1 -1 -0 -0 -0 -0 -0 0 3 5 7 6 0 -1 3 7 12 9 12 17 9 10 10 11 6 10 7 9 9 9 11 12 10 9 8 8 9 8 7 7 8 8 8 8 8 7 8 10
-0 -0 -0 -0 -1 -1 -0 -0 -0 -0 -0 0 5 9 14 8 2 0 4 5 5 5 6 10 10 13 11 14 14 12 13 12 13 11 10 10 11 9 8 8 8 7 7 7 9 9 8 8 9 9 8 6 7 10
-0 -0 -0 -0 -1 -0 -0 -0 -0 -0 2 7 11 11 6 2 5 8 10 10 10 11 8 8 9 10 8 12 12 10 13 12 14 12 12 13 13 10 7 7 6 6 6 5 5 5 5 7 8 9 7 5 7 9
0 0 -0 -0 -0 0 -0 -0 -0 5 6 6 5 4 5 6 8 10 11 9 10 11 9 10 9 9 8 7 10 10 12 12 15 10 13 14 10 7 6 7 8 8 8 7 5 6 7 6 6 7 7 8 9 9
0 0 -0 0 0 0 1 0 1 2 2 4 7 11 8 11 17 16 19 13 12 9 8 8 9 8 8 8 11 11 14 14 10 12 13 12 9 7 8 8 9 9 7 8 8 8 8 6 7 8 9 9 9 11
1 1 1 0 0 0 0 0 0 2 5 10 14 17 13 20 14 12 11 11 9 8 9 9 9 9 8 11 11 13 12 11 14 15 14 11 9 8 9 10 10 9 9 10 9 8 8 8 9 11 10 9 11 13
1 1 1 1 1 0 0 0 1 4 7 12 10 14 16 12 12 11 11 10 8 7 8 9 9 9 10 11 10 11 13 14 13 14 11 9 8 9 10 10 11 10 11 11 10 10 12 11 11 11 10 10 13 15
1 1 3 1 0 0 0 2 4 6 9 10 9 11 12 11 13 15 13 11 8 9 7 8 10 12 12 11 12 13 14 15 12 10 9 9 9 10 10 11 11 10 11 12 12 11 11 11 11 14 15 15 16 16
1 5 1 1 1 0 1 5 5 8 10 11 14 13 13 14 13 12 11 10 8 8 10 10 13 13 11 12 13 11 13 10 9 9 10 10 10 10 11 11 12 11 12 13 14 14 15 16 17 16 17 20 17 17
3 2 1 1 1 2 5 5 9 9 11 11 15 17 14 12 13 12 12 11 8 8 9 11 10 12 14 14 15 10 9 9 9 10 11 10 11 11 11 12 11 11 12 15 17 17 18 18 16 17 17 17 18 19
2 1 0 1 4 7 9 9 8 13 12 13 13 13 12 12 11 10 11 11 10 7 8 10 12 13 12 11 11 10 10 10 11 10 12 12 12 11 12 12 11 11 12 14 14 15 15 15 16 17 17 16 16 17
0 1 1 1 3 8 9 10 7 10 12 12 11 12 12 12 12 10 9 9 8 8 10 12 14 14 12 10 9 10 10 10 11 12 12 12 10 11 11 11 12 11 12 12 13 15 15 16 16 16 15 14 15 17
3 3 2 4 6 7 8 8 9 10 9 10 10 10 11 11 12 10 10 8 9 10 11 11 11 10 9 9 11 10 10 10 10 11 11 12 11 11 11 11 11 13 13 13 13 16 18 16 17 15 16 17 18 17
6 3 7 6 9 9 9 9 9 7 8 9 9 10 11 15 16 15 10 10 10 10 10 12 15 15 15 13 13 12 11 10 10 10 10 10 11 11 11 11 12 12 14 15 13 15 17 16 16 16 17 19 17 17
3 4 7 7 10 11 12 8 9 8 10 12 11 11 14 15 13 10 14 13 11 13 13 13 14 14 13 14 13 13 14 11 11 11 11 11 11 10 10 10 11 12 13 13 13 14 16 17 17 17 17 16 17 18
4 10 12 11 12 17 11 12 9 10 11 10 12 15 14 15 12 13 14 15 14 12 11 13 14 15 15 13 14 13 12 13 11 11 11 11 11 11 11 10 10 11 11 11 14 14 15 17 17 16 16 16 17 18
10 13 11 16 14 13 16 14 15 12 14 17 16 19 15 14 17 18 15 14 13 14 12 12 13 12 13 15 14 14 12 11 12 12 10 10 10 9 9 9 10 11 10 12 13 14 15 16 15 14 15 15 15 16
14 16 14 14 18 15 16 18 20 17 14 15 15 14 15 17 18 18 15 15 15 13 16 13 13 15 15 13 12 13 12 11 10 11 11 10 10 10 10 10 10 9 10 9 10 11 12 13 13 13 12 13 14 14
15 17 13 11 12 11 15 16 13 16 18 18 16 19 17 18 19 16 13 12 10 10 11 12 12 12 11 11 10 11 11 11 11 11 10 9 9 9 8 9 9 7 9 8 8 9 10 11 11 11 11 11 11 11
14 14 17 16 16 13 17 19 18 19 17 13 14 16 15 15 14 10 9 9 11 13 13 13 11 13 13 14 14 15 15 14 14 13 12 11 11 10 8 8 8 8 7 7 7 8 8 9 9 10 10 11 11 11
14 12 14 18 20 18 17 16 17 14 12 12 13 14 13 12 11 10 11 12 14 14 16 18 20 19 19 18 19 19 19 19 21 20 19 16 15 13 12 11 10 9 7 7 7 7 8 8 9 9 9 10 11 12
15 13 17 21 21 18 17 16 14 12 11 11 11 11 11 11 13 14 15 15 16 20 24 25 25 26 25 26 22 20 20 22 23 19 17 18 17 14 14 13 9 8 8 8 8 8 8 9 9 9 10 11 12 13
15 17 18 17 18 16 13 19 20 20 21 17 13 13 13 13 16 18 19 18 20 22 21 23 25 28 28 24 26 22 20 21 24 18 16 16 15 15 14 12 9 8 8 8 8 8 9 10 10 11 12 12 12 13
20 20 24 25 20 18 24 25 21 25 19 17 15 15 21 22 21 20 18 20 19 22 24 27 27 20 22 24 22 21 18 18 17 16 15 14 13 13 12 11 10 8 8 8 7 8 9 10 10 11 12 12 13 13
25 30 29 28 22 19 19 22 21 24 27 29 26 29 27 23 20 19 16 20 21 22 21 20 19 20 21 22 21 20 21 17 16 15 15 14 13 12 10 8 7 7 7 7 6 7 8 9 10 10 11 12 13 14